Location: Lake Zurich
(42.1970°N, 88.0930°W)
Time: 22:38:51
(UTC-05:00)

Daily predictions for brighter satellites

Satellite Brightness Start Highest point End
(mag) Time Altitude Azimuth Time Altitude Azimuth Time Altitude Azimuth
Cosmos 2219 Rocket 4.0 20:59:26 10° N 21:03:15 18° NE 21:07:02 10° E
SJ-11-01 4.3 20:58:38 10° SSE 21:03:21 86° ENE 21:08:08 10° NNW
Cosmos 304 Rocket 4.1 20:59:16 10° N 21:04:00 53° ENE 21:08:41 10° SE
Meteor 2-2 Rocket 4.4 20:58:33 10° N 21:04:34 77° E 21:10:36 10° SSE
Cosmos 1743 Rocket 4.3 21:05:08 10° SSW 21:09:31 58° W 21:13:57 10° N
Meteor 1-21 Rocket 4.3 21:04:49 10° S 21:10:21 83° W 21:15:55 10° N
Cosmos 1500 Rocket 3.8 21:10:46 10° SSW 21:15:07 74° W 21:19:34 10° N
S3M 4.5 21:09:50 10° NNW 21:15:51 63° W 21:21:54 10° S
Cosmos 1437 3.0 21:16:32 10° S 21:19:42 48° E 21:22:53 10° NNE
Cosmos 1726 3.8 21:17:45 10° NNE 21:20:39 21° ENE 21:23:25 11° ESE
Cosmos 1328 4.2 21:17:00 10° SSE 21:20:45 44° E 21:24:33 10° NNE
ATLAS 2AS CENTAUR R/B 4.4 21:18:58 10° SE 21:22:50 15° ESE 21:26:50 10° ENE
Envisat 3.0 21:20:40 10° SSE 21:25:44 86° ENE 21:30:51 10° NNW
ERS-1 Rocket 3.6 21:21:56 10° S 21:26:52 55° W 21:31:50 10° NNW
Cosmos 2219 3.3 21:23:10 10° S 21:28:45 56° ESE 21:34:23 10° NNE
Delta 2 Rocket 4.0 21:26:22 10° WSW 21:29:29 27° S 21:31:53 13° ESE
deb Chang Zheng 4 3.9 21:26:31 10° N 21:30:50 71° WNW 21:35:09 10° SSW
Cosmos 2237 Rocket 3.9 21:30:35 10° N 21:34:55 22° NE 21:39:14 10° E
Cosmos 2322 3.9 21:31:35 10° NNW 21:37:18 73° WSW 21:42:57 10° SSE
Cosmos 2322 Rocket 4.1 21:33:05 10° NW 21:37:32 25° WSW 21:41:58 10° SSW
SL-23 DEB 3.9 21:32:17 10° WNW 21:37:43 84° SSW 21:40:32 15° SE
Cosmos 1271 Rocket 4.3 21:34:47 10° NNE 21:37:48 22° ENE 21:40:05 14° ESE
Cosmos 2112 Rocket 4.0 21:33:07 10° NNW 21:38:23 88° ENE 21:43:24 11° SSE
Cosmos 2151 3.0 21:37:24 10° S 21:41:36 84° W 21:45:50 10° N
SL-14 R/B 3.9 21:40:06 13° SSE 21:43:15 38° E 21:46:59 10° NNE
Meteor 1-4 Rocket 3.9 21:40:11 10° NNE 21:43:23 26° ENE 21:45:29 16° ESE
Cosmos 1937 Rocket 4.4 21:41:23 12° SSE 21:45:23 29° E 21:49:50 10° NE
Meteor 1-27 4.4 21:40:11 10° N 21:45:49 60° ENE 21:50:34 14° SSE
NOSS 3-1 (C) 3.4 21:40:26 10° SSW 21:46:08 61° ESE 21:52:30 10° NE
Terra 3.4 21:43:25 12° ESE 21:46:33 21° ENE 21:50:06 10° NNE
Cosmos 2360 Rocket 2.7 21:41:13 10° NNW 21:46:46 59° WSW 21:52:18 10° S
Cosmos 2298 Rocket 4.3 21:41:48 10° S 21:46:55 50° ESE 21:52:03 10° NNE
SL-16 R/B 4.3 21:44:51 10° NW 21:49:01 21° W 21:53:11 10° SSW
Aureole 3 4.4 21:43:13 10° S 21:49:55 89° WNW 21:55:13 10° N
MetOp-B 4.1 21:44:55 11° SSE 21:50:08 89° E 21:55:32 10° NNW
NOAA 11 4.5 21:47:20 15° SE 21:51:41 53° ENE 21:56:59 10° N
Sich 1 3.4 21:48:46 14° SSE 21:52:20 45° E 21:56:33 10° NNE
CZ-4 SHROUD 3.8 21:51:29 12° S 21:54:15 54° W 21:57:20 10° NNW
DELTA 2 R/B (1) 4.3 21:49:26 10° W 21:54:33 38° SSW 21:58:07 18° SE
USA 245 2.3 21:53:36 26° SE 21:54:43 52° ENE 21:57:00 10° N
Cosmos 1633 Rocket 3.4 21:52:39 15° SSE 21:56:02 47° E 22:00:14 10° NNE
Cosmos 2058 2.8 21:52:34 10° S 21:56:40 87° E 22:00:47 10° N
Cosmos 1151 Rocket 4.4 21:55:50 10° NNW 21:59:48 36° W 22:03:45 10° SSW
OAO 2 Rocket 4.3 21:55:52 10° SW 22:00:23 29° SSE 22:03:20 18° ESE
Cosmos 1626 3.9 22:01:02 16° ESE 22:01:47 17° E 22:04:16 10° NE
CZ-4 R/B 3.9 22:04:24 10° NNE 22:09:18 63° E 22:13:19 15° S
SL-08 RB Rocket 3.7 22:06:50 21° SSE 22:09:43 66° ENE 22:14:11 10° N
CZ-4B R/B 3.6 22:05:47 10° NNE 22:11:05 90° NW 22:16:17 10° SSW
H-2A R/B 2.7 22:08:02 20° SE 22:11:23 43° ENE 22:16:31 10° N
Cosmos 1805 Rocket 3.9 22:07:06 10° SSW 22:11:31 69° W 22:15:59 10° N
Meteor 1-11 4.3 22:08:48 10° S 22:14:35 86° W 22:20:20 10° N
Cosmos 2227 Rocket 2.9 22:11:30 20° SSE 22:14:35 35° ESE 22:19:40 10° NE
Cosmos 1300 3.0 22:11:26 10° NNW 22:15:15 63° W 22:17:53 19° S
YAOGAN 6 3.3 22:12:45 17° S 22:15:23 51° W 22:18:56 10° NNW
Cosmos 2315 Rocket 4.4 22:09:48 10° NNW 22:15:54 60° W 22:21:57 10° S
Tiangong 1 1.1 22:12:58 10° WSW 22:15:59 52° SSE 22:17:13 29° E
SPOT 1/Viking Rocket 3.8 22:19:48 17° S 22:23:43 64° WSW 22:28:52 10° NNW
Cosmos 2333 Rocket 2.5 22:22:22 10° NNW 22:28:03 58° ENE 22:31:18 26° SE
Cosmos 1898 Rocket 3.5 22:23:04 10° SSW 22:28:15 82° WNW 22:33:30 10° NNE
SL-16 R/B 3.7 22:23:49 10° N 22:28:28 25° NE 22:32:01 14° E
Cosmos 1707 Rocket 4.4 22:25:34 10° NNW 22:29:45 46° W 22:32:56 16° SSW
DELTA 2 R/B(2) 4.4 22:28:03 10° WSW 22:29:21 37° SW 22:29:21 37° SW
IGS 5A 4.0 22:29:10 30° SE 22:30:48 46° ENE 22:34:49 10° N
SeaSat 1 4.5 22:29:41 10° E 22:32:56 18° NE 22:36:12 10° N
Cosmos 1666 Rocket 4.3 22:29:56 11° SSW 22:34:07 53° W 22:38:28 10° N
Cosmos 220 Rocket 3.9 22:31:40 20° SSW 22:34:42 80° ESE 22:39:09 10° NNE
Cosmos 2150 Rocket 4.4 22:30:18 10° SSW 22:35:43 71° WNW 22:41:13 10° NNE
Cosmos 1455 2.5 22:34:07 10° N 22:37:51 50° E 22:38:49 39° SE
Nadezhda 1 Rocket 3.9 22:32:45 10° N 22:38:51 72° E 22:42:18 28° SSE
COSMOS 2428 3.5 22:34:18 10° NW 22:39:41 45° WSW 22:43:18 20° S
SAR-Lupe-2 3.8 22:40:40 42° ESE 22:41:30 54° ENE 22:45:00 10° N
Cosmos 2297 Rocket 2.7 22:39:28 29° SSE 22:41:34 40° ESE 22:46:50 10° NE
ARGOS 3.8 22:41:02 19° S 22:44:44 51° W 22:50:00 10° NNW
Cosmos 1470 Rocket 3.4 22:45:42 33° S 22:47:38 85° E 22:51:58 10° N
Cosmos 2219 Rocket 2.2 22:42:15 10° NNW 22:47:51 77° WSW 22:50:35 31° SSE
Cosmos 1933 Rocket 3.5 22:46:48 32° S 22:48:51 85° E 22:53:20 10° N
NOSS 3-1 (A) 3.8 22:44:18 10° SW 22:50:11 67° NW 22:56:46 10° NNE
Cosmos 1745 Rocket 4.0 22:47:12 19° SSW 22:51:55 80° W 22:58:08 10° N
Cosmos 1869 3.3 22:51:17 10° N 22:55:20 68° E 22:56:15 49° SE
Cosmos 1726 4.0 22:52:51 10° NW 22:55:59 25° W 22:58:06 16° SW
DMSP B5D2-2 4.0 22:53:30 10° NNE 22:58:45 83° ESE 23:01:25 30° S
Cosmos 1709 Rocket 4.2 22:57:41 33° SSE 23:00:12 53° E 23:06:07 10° NNE
CZ-4C R/B 4.1 22:59:54 31° SW 23:00:51 37° W 23:04:07 10° NNW
Cosmos 2221 Rocket 4.5 22:57:11 10° N 23:01:26 36° ENE 23:02:24 32° ESE
NOSS 0 Rocket 4.0 22:56:19 10° NNW 23:02:26 69° WSW 23:05:19 33° S
ERBS 2.2 23:05:20 59° SW 23:05:56 89° ESE 23:09:25 10° NE
Cosmos 1980 3.7 23:01:16 10° NNW 23:06:55 75° WSW 23:09:10 38° S
ATLAS 2AS CENTAUR R/B 2.9 23:05:37 13° SSW 23:12:26 76° ESE 23:20:29 10° NE
Spot 2 4.4 23:08:35 10° NNE 23:13:43 83° WNW 23:15:54 34° SSW
Cosmos 468 4.5 23:11:21 10° NNW 23:16:44 81° ENE 23:18:26 45° SSE
Cosmos 1346 4.4 23:17:15 33° W 23:17:37 34° WNW 23:20:27 10° N
Cosmos 2237 Rocket 2.4 23:13:49 10° NNW 23:19:29 65° WSW 23:21:31 39° S
CZ-4C R/B 4.5 23:16:25 10° NNW 23:22:01 26° NE 23:28:06 10° E
Cosmos 44 Rocket 4.3 23:22:33 32° ESE 23:22:33 32° ESE 23:26:49 10° NE
Terra 2.6 23:22:18 31° SSW 23:23:58 44° W 23:28:33 10° NNW
Cosmos 2082 4.0 23:19:48 18° SW 23:24:07 68° WNW 23:29:51 10° NNE
COS B Rocket 3.6 23:20:44 10° NNE 23:24:30 53° E 23:24:36 53° E
Cosmos 2181 Rocket 4.0 23:20:16 10° N 23:26:40 77° E 23:29:09 40° SSE
Spot 4 4.3 23:26:34 38° SSW 23:28:04 52° W 23:32:49 10° NNW
ATLAS 3B R/B 2.7 23:21:15 10° NNW 23:28:19 76° NE 23:31:15 36° SE
Cosmos 1862 Rocket 4.5 23:24:25 10° NNW 23:28:30 40° W 23:29:43 32° SW
Lacrosse 4 Rocket 1.8 23:24:31 10° NNW 23:28:55 59° ENE 23:29:44 49° ESE
Meteor 2-3 Rocket 4.4 23:33:21 36° ESE 23:34:28 40° E 23:39:45 10° NNE
Cosmos 1626 3.8 23:35:44 24° WSW 23:36:57 29° WNW 23:40:18 10° NNW
USA 238 DEB 4.5 23:30:58 10° NNW 23:37:45 47° NE 23:42:04 22° ESE
USA 238 4.5 23:31:04 10° NNW 23:37:50 47° NE 23:42:10 22° ESE
Cosmos 1900 4.2 23:33:53 10° NNW 23:38:54 88° WSW 23:39:47 60° SSE
In-Cosmos 22 Rocket 4.5 23:42:04 45° SE 23:43:13 53° E 23:48:49 10° NNE
Cosmos 1689 Rocket 4.4 23:47:10 21° ENE 23:47:10 21° ENE 23:49:18 10° NNE
NOSS 2-3 (E) 3.9 23:46:41 58° SSE 23:47:08 61° ESE 23:52:39 10° NE
H-2A R/B 3.7 23:48:41 19° SW 23:50:56 25° W 23:55:24 10° NW
COSMOS 2455 2.8 23:45:44 10° NNW 23:51:45 75° WSW 23:53:21 50° S
Cosmos 1269 Rocket 4.2 23:48:10 10° NNW 23:53:25 60° WSW 23:54:28 50° SSW
Cosmos 1933 3.9 23:50:44 10° NNW 23:54:39 47° W 23:54:51 47° WSW
